WX2DX-2 Weather Reports


Display with metric or nautical units.
time (UTC)temp
F
wind
direction
speed
MPH
gust
MPH
rain 1hr
in
rain 24hr
in
rain mn
in
humidity
%
barometer
mb
20260831023035 68 146 0.0 3.0 0.00 0.00 0.00 91 1021.7
20260831021545 68 82 0.0 0.0 0.00 0.00 0.00 91 1021.7
20260831020022 69 82 1.0 2.0 0.00 0.00 0.00 91 1021.7
20260831014523 69 114 0.0 1.0 0.00 0.00 0.00 90 1021.6
20260831013023 69 114 0.0 1.0 0.00 0.00 0.00 89 1021.6
20260831011521 69 114 0.0 2.0 0.00 0.00 0.00 89 1021.4
20260831010040 69 37 0.0 0.0 0.00 0.00 0.00 89 1021.1
20260831004522 69 37 0.0 1.0 0.00 0.00 0.00 88 1020.8
20260831003021 70 37 0.0 0.0 0.00 0.00 0.00 87 1020.4
20260831001530 70 37 0.0 2.0 0.00 0.00 0.00 86 1020.1
20260831000021 71 37 1.0 2.0 0.00 0.00 0.00 84 1020.0
20260830234519 72 149 0.0 1.0 0.00 0.00 0.00 82 1019.9
20260830233019 73 149 0.0 2.0 0.00 0.00 0.00 81 1019.8
20260830231526 73 180 2.0 4.0 0.00 0.00 0.00 79 1019.9
20260830230017 74 318 1.0 4.0 0.00 0.00 0.00 79 1019.9
20260830224517 74 306 0.0 4.0 0.00 0.00 0.00 80 1020.0
20260830223019 74 311 1.0 4.0 0.00 0.00 0.00 79 1020.1
20260830221516 74 203 1.0 4.0 0.00 0.00 0.00 78 1020.2
20260830220018 75 309 1.0 4.0 0.00 0.00 0.00 77 1020.2
20260830214514 75 319 0.0 3.0 0.00 0.00 0.00 77 1020.2
20260830213013 76 272 1.0 3.0 0.00 0.00 0.00 77 1020.1
20260830211520 77 315 1.0 3.0 0.00 0.00 0.00 74 1020.1
20260830210014 77 299 1.0 4.0 0.00 0.00 0.00 72 1020.0
20260830204513 78 273 1.0 3.0 0.00 0.00 0.00 73 1019.9
20260830203014 78 323 0.0 3.0 0.00 0.00 0.00 72 1019.9
20260830201512 79 292 1.0 3.0 0.00 0.00 0.00 72 1019.8
20260830200009 80 292 0.0 5.0 0.00 0.00 0.00 70 1020.0
20260830194508 80 275 0.0 3.0 0.00 0.00 0.00 69 1020.1
20260830193005 81 311 1.0 4.0 0.00 0.00 0.00 65 1020.2
20260830191507 81 275 0.0 5.0 0.00 0.00 0.00 68 1020.3
20260830190004 81 263 1.0 6.0 0.00 0.00 0.00 69 1020.7
20260830184501 80 286 0.0 6.0 0.00 0.00 0.00 70 1020.8
20260830183119 81 263 2.0 6.0 0.00 0.00 0.00 66 1020.7
20260830181603 80 259 1.0 4.0 0.00 0.00 0.00 72 1021.0
20260830180108 79 234 3.0 7.0 0.00 0.00 0.00 72 1021.1
20260830174555 79 213 3.0 6.0 0.00 0.00 0.00 70 1021.2
20260830173114 80 231 2.0 8.0 0.00 0.00 0.00 69 1021.4
20260830171559 80 211 1.0 5.0 0.00 0.00 0.00 71 1021.4
20260830170045 79 273 2.0 7.0 0.00 0.00 0.00 72 1021.6
20260830164542 79 251 2.0 4.0 0.00 0.00 0.00 73 1021.7
20260830163039 77 289 1.0 7.0 0.00 0.00 0.00 72 1021.8
20260830161546 78 54 1.0 5.0 0.00 0.00 0.00 74 1021.8
20260830160035 77 133 1.0 5.0 0.00 0.00 0.00 73 1021.9
20260830154533 76 198 1.0 6.0 0.00 0.00 0.00 75 1022.1
20260830153028 75 238 0.0 7.0 0.00 0.00 0.00 74 1022.3
20260830151525 74 245 4.0 8.0 0.00 0.00 0.00 78 1022.4
20260830150023 72 270 1.0 7.0 0.00 0.00 0.00 76 1022.3
20260830144546 72 215 2.0 4.0 0.00 0.00 0.00 77 1022.3
20260830143049 72 250 0.0 7.0 0.00 0.00 0.00 79 1022.3
20260830141542 71 178 2.0 5.0 0.00 0.00 0.00 76 1022.4
20260830140037 69 246 2.0 6.0 0.00 0.00 0.00 77 1022.4
20260830134546 69 224 3.0 7.0 0.00 0.00 0.00 76 1022.5
20260830133037 69 263 3.0 4.0 0.00 0.00 0.00 79 1022.6
20260830131530 68 175 1.0 3.0 0.00 0.00 0.00 80 1022.7
20260830130028 67 213 1.0 3.0 0.00 0.00 0.00 80 1022.6
20260830124526 65 275 0.0 0.0 0.00 0.00 0.00 87 1022.7
20260830123021 63 120 0.0 0.0 0.00 0.00 0.00 89 1022.8
20260830121516 62 120 0.0 0.0 0.00 0.00 0.00 90 1022.8
20260830120014 61 100 0.0 0.0 0.00 0.00 0.00 92 1022.9
20260830114510 60 100 0.0 0.0 0.00 0.00 0.00 95 1022.8
20260830113006 59 100 0.0 0.0 0.00 0.00 0.00 95 1022.9
20260830111504 58 100 0.0 0.0 0.00 0.00 0.00 95 1022.9
20260830110001 57 100 0.0 0.0 0.00 0.00 0.00 94 1022.8
20260830104600 58 100 0.0 0.0 0.00 0.00 0.00 94 1022.5
20260830103058 58 100 0.0 0.0 0.00 0.00 0.00 94 1022.6
20260830101600 58 100 0.0 0.0 0.00 0.00 0.00 94 1022.7
20260830100056 58 100 0.0 0.0 0.00 0.00 0.00 94 1022.9
20260830094556 58 100 0.0 0.0 0.00 0.00 0.00 94 1023.0
20260830093116 58 100 0.0 0.0 0.00 0.00 0.00 95 1023.1
20260830091555 57 100 0.0 0.0 0.00 0.00 0.00 95 1023.0
20260830090053 57 100 0.0 0.0 0.00 0.00 0.00 95 1023.0
20260830084551 57 100 0.0 0.0 0.00 0.00 0.00 95 1023.2
20260830083045 56 100 0.0 0.0 0.00 0.00 0.00 95 1023.3
20260830081544 56 100 0.0 0.0 0.00 0.00 0.00 95 1023.3
20260830080046 56 100 0.0 0.0 0.00 0.00 0.00 95 1023.4
20260830074610 56 100 0.0 0.0 0.00 0.00 0.00 95 1023.4
20260830073041 55 100 0.0 0.0 0.00 0.00 0.00 95 1023.5
20260830071547 55 100 0.0 0.0 0.00 0.00 0.00 95 1023.5
20260830070043 55 100 0.0 0.0 0.00 0.00 0.00 95 1023.5
20260830064638 54 37 0.0 0.0 0.00 0.00 0.00 95 1023.6
20260830063036 54 37 0.0 0.0 0.00 0.00 0.00 94 1023.6
20260830061534 54 37 0.0 0.0 0.00 0.00 0.00 94 1023.7
20260830060034 54 37 0.0 0.0 0.00 0.00 0.00 94 1023.8
20260830054534 55 37 0.0 0.0 0.00 0.00 0.00 94 1023.7
20260830053029 55 37 0.0 0.0 0.00 0.00 0.00 94 1023.9
20260830051541 55 37 0.0 0.0 0.00 0.00 0.00 94 1024.0
20260830050026 55 37 0.0 0.0 0.00 0.00 0.00 93 1024.0
20260830044527 56 37 0.0 0.0 0.00 0.00 0.00 94 1023.9
20260830043023 56 37 0.0 0.0 0.00 0.00 0.00 94 1024.0
20260830041544 56 37 0.0 0.0 0.00 0.00 0.00 93 1024.0
20260830040022 56 37 0.0 0.0 0.00 0.00 0.00 92 1024.0
20260830034519 57 37 0.0 0.0 0.00 0.00 0.00 92 1024.1
20260830033017 57 37 0.0 0.0 0.00 0.00 0.00 92 1024.0
20260830031517 57 37 0.0 0.0 0.00 0.00 0.00 91 1024.0
20260830030023 58 37 0.0 0.0 0.00 0.00 0.00 91 1023.9
20260830024513 58 37 0.0 0.0 0.00 0.00 0.00 90 1023.9